This is the latest recevied weather packets stored in our database for station/object HP1MRA-15. If no packets are shown the sender has not sent any weather packets the latest 10 day(s).
| Time | Temp. | Humidity | Pressure | Rain* | Wind** | Luminosity | Snow |
|---|---|---|---|---|---|---|---|
| 1788112226 | - | - | 1002 hPa | 0 mm | - | - | - |
| 1788111925 | 38.33° C | 66% | 1002.1 hPa | 0 mm | - | - | - |
| 1788111625 | 38.33° C | 66% | 1002.1 hPa | 0 mm | - | - | - |
| 1788111323 | 38.89° C | 66% | 1002.2 hPa | 0 mm | - | - | - |
| 1788111022 | 38.33° C | 67% | 1002.4 hPa | 0 mm | - | - | - |
| 1788110622 | 37.78° C | 68% | 1002.5 hPa | 0 mm | - | - | - |
| 1788110322 | 37.78° C | 67% | 1002.5 hPa | 0 mm | - | - | - |
| 1788110022 | 38.33° C | 68% | 1002.5 hPa | 0 mm | - | - | - |
| 1788110022 | 38.33° C | 68% | 1002.5 hPa | 0 mm | - | - | - |
| 1788109722 | 38.89° C | 68% | 1002.6 hPa | 0 mm | - | - | - |
| 1788109421 | 39.44° C | 67% | 1002.6 hPa | 0 mm | - | - | - |
| 1788109121 | 38.89° C | 69% | 1002.6 hPa | 0 mm | - | - | - |
| 1788108822 | 37.78° C | 69% | 1002.9 hPa | 0 mm | - | - | - |
| 1788108521 | 37.78° C | 67% | 1003 hPa | 0 mm | - | - | - |
| 1788108222 | 37.78° C | 69% | 1003.1 hPa | 0 mm | - | - | - |
| 1788108221 | 37.78° C | 69% | 1003.1 hPa | 0 mm | - | - | - |
| 1788107921 | 37.78° C | 67% | 1003.2 hPa | 0 mm | - | - | - |
| 1788107621 | 37.22° C | 68% | 1003.3 hPa | 0 mm | - | - | - |
| 1788107321 | 36.67° C | 68% | 1003.6 hPa | 0 mm | - | - | - |
| 1788107020 | 36.11° C | 70% | 1003.6 hPa | 0 mm | - | - | - |
| 1788106721 | 36.11° C | 66% | 1003.6 hPa | 0 mm | - | - | - |
| 1788106420 | 37.22° C | 67% | 1003.8 hPa | 0 mm | - | - | - |
| 1788106119 | 37.78° C | 68% | 1003.9 hPa | 0 mm | - | - | - |
| 1788105817 | 37.22° C | 72% | 1004 hPa | 0 mm | - | - | - |
| 1788105459 | 37.22° C | 71% | 1004 hPa | 0 mm | - | - | - |
* Rain latest hour (hover to see other rain measurements)
** Current wind speed in m/s (hover to see current wind gust speed)